Voltar ao catálogo

STARLINK-32833

AtivoComunicaçõesVLEO
NORAD 62873·PAYLOAD·🇺🇸 United States

Lançado Feb 1, 2025 de Vandenberg Space Force Base

Loading…

Próximas Passagens (próximas 24 horas)

TLE

AtualizadoSource: CelesTrak SupGP

Época: Sep 15, 2026, 03:02 UTC

1 62873C 25022V   26258.12687500  .00055171  00000+0  16296-2 0  2581
2 62873  53.1595 326.6816 0001251  89.1709  10.4078 15.34371717    11

Acompanhe STARLINK-32833 em tempo real com AllMySat

Download on the App Store